FW8576 Weather Reports


time (UTC)temp
F
wind
direction
speed
knots
gust
knots
rain 1hr
in
rain 24hr
in
rain mn
in
humidity
%
barometer
mb
20260504215107 78 176 4.3 6.1 0.00 0.00 0.00 34 1018.5
20260504214603 78 193 5.2 6.1 0.00 0.00 0.00 34 1018.6
20260504214059 78 202 3.5 5.2 0.00 0.00 0.00 35 1018.4
20260504213556 79 169 5.2 7.0 0.00 0.00 0.00 35 1018.6
20260504213053 80 198 1.7 6.1 0.00 0.00 0.00 33 1018.5
20260504212549 81 200 3.5 7.0 0.00 0.00 0.00 33 1018.5
20260504212046 81 252 6.1 8.7 0.00 0.00 0.00 32 1018.6
20260504211543 81 207 7.8 7.8 0.00 0.00 0.00 32 1018.3
20260504211040 82 148 6.1 8.7 0.00 0.00 0.00 32 1018.5
20260504210537 82 221 7.0 7.0 0.00 0.00 0.00 31 1018.2
20260504210034 81 222 6.1 9.6 0.00 0.00 0.00 30 1018.6
20260504205532 82 234 4.3 6.1 0.00 0.00 0.00 31 1018.3
20260504205029 82 244 2.6 11.3 0.00 0.00 0.00 30 1018.5
20260504204527 81 213 3.5 7.8 0.00 0.00 0.00 33 1018.6
20260504204026 81 231 0.0 9.6 0.00 0.00 0.00 31 1018.7
20260504203524 82 206 1.7 6.1 0.00 0.00 0.00 31 1018.8
20260504203021 82 212 1.7 7.0 0.00 0.00 0.00 34 1018.8
20260504202516 82 208 5.2 5.2 0.00 0.00 0.00 31 1018.8
20260504202013 82 0 0.0 2.6 0.00 0.00 0.00 28 1018.6
20260504201510 81 162 3.5 6.1 0.00 0.00 0.00 30 1019.0
20260504201008 80 258 1.7 8.7 0.00 0.00 0.00 28 1018.9
20260504200504 82 188 0.0 4.3 0.00 0.00 0.00 28 1018.9
20260504200001 83 292 1.7 4.3 0.00 0.00 0.00 29 1018.9
20260504195457 81 219 3.5 7.0 0.00 0.00 0.00 27 1019.0
20260504194954 81 210 1.7 7.0 0.00 0.00 0.00 30 1019.1
20260504194450 81 264 2.6 6.1 0.00 0.00 0.00 31 1019.3
20260504193946 82 81 1.7 6.1 0.00 0.00 0.00 30 1019.2
20260504193443 80 254 3.5 7.0 0.00 0.00 0.00 31 1019.5
20260504192942 81 262 4.3 7.8 0.00 0.00 0.00 29 1019.1
20260504192438 80 72 0.0 4.3 0.00 0.00 0.00 33 1019.3
20260504191938 81 144 1.7 2.6 0.00 0.00 0.00 31 1019.4
20260504191435 81 94 2.6 3.5 0.00 0.00 0.00 33 1019.6
20260504190930 79 12 1.7 3.5 0.00 0.00 0.00 30 1019.5
20260504190426 80 278 3.5 6.1 0.00 0.00 0.00 32 1019.5
20260504185923 80 339 0.0 3.5 0.00 0.00 0.00 32 1019.6
20260504185420 79 195 3.5 7.0 0.00 0.00 0.00 30 1019.9
20260504184916 79 270 3.5 7.0 0.00 0.00 0.00 32 1019.9
20260504184412 80 255 2.6 4.3 0.00 0.00 0.00 32 1020.1
20260504183908 79 207 2.6 7.0 0.00 0.00 0.00 32 1020.3
20260504183405 80 145 6.1 7.0 0.00 0.00 0.00 36 1020.2
20260504182903 79 227 2.6 4.3 0.00 0.00 0.00 32 1020.2
20260504182400 78 225 1.7 3.5 0.00 0.00 0.00 32 1020.2
20260504181856 78 213 2.6 7.0 0.00 0.00 0.00 34 1020.3
20260504181354 78 251 1.7 7.0 0.00 0.00 0.00 33 1020.5
20260504180853 78 272 5.2 7.0 0.00 0.00 0.00 34 1020.5
20260504180351 79 261 1.7 3.5 0.00 0.00 0.00 37 1020.3
20260504175849 79 105 1.7 6.1 0.00 0.00 0.00 36 1020.8
20260504175345 77 16 0.0 6.1 0.00 0.00 0.00 33 1020.8
20260504174844 77 200 2.6 4.3 0.00 0.00 0.00 34 1020.9
20260504174341 77 238 4.3 7.8 0.00 0.00 0.00 35 1020.9
20260504173838 77 217 4.3 7.0 0.00 0.00 0.00 35 1020.8
20260504173334 77 291 0.9 7.0 0.00 0.00 0.00 35 1021.0
20260504172831 78 259 3.5 4.3 0.00 0.00 0.00 32 1020.8
20260504172328 78 174 3.5 4.3 0.00 0.00 0.00 36 1020.9
20260504171824 77 225 4.3 4.3 0.00 0.00 0.00 33 1020.9
20260504171321 79 319 0.0 4.3 0.00 0.00 0.00 34 1021.0
20260504170818 78 240 0.9 2.6 0.00 0.00 0.00 38 1021.0
20260504170315 78 259 1.7 2.6 0.00 0.00 0.00 37 1021.2
20260504160233 74 219 2.6 11.3 0.00 0.00 0.00 38 1021.9
20260504150659 73 213 1.7 4.3 0.00 0.00 0.00 49 1022.4
20260504150156 71 244 4.3 7.0 0.00 0.00 0.00 47 1022.4
20260504141124 70 243 0.0 3.5 0.00 0.00 0.00 51 1022.5
20260504140621 70 26 0.0 3.5 0.00 0.00 0.00 57 1022.5
20260504140117 68 63 0.0 2.6 0.00 0.00 0.00 56 1022.9
20260504130545 62 203 0.0 1.7 0.00 0.00 0.00 72 1022.8
20260504110433 44 90 0.0 0.0 0.00 0.00 0.00 98 1022.6
20260504100349 45 123 0.0 0.0 0.00 0.00 0.00 97 1022.0
20260504081742 47 353 0.0 0.9 0.00 0.00 0.00 93 1021.6
20260504081239 47 81 0.0 0.0 0.00 0.00 0.00 93 1021.9
20260504080736 47 83 0.0 0.9 0.00 0.00 0.00 93 1021.6
20260504080232 47 286 0.0 0.0 0.00 0.00 0.00 93 1021.7
20260504070200 48 117 0.0 0.0 0.00 0.00 0.00 90 1021.8
20260504060120 50 157 0.9 1.7 0.00 0.00 0.00 87 1022.1
20260504050548 51 237 0.0 0.9 0.00 0.00 0.00 88 1022.1
20260504045542 51 246 0.0 0.0 0.00 0.00 0.00 89 1022.2
20260504045037 51 246 0.0 0.9 0.00 0.00 0.00 89 1022.2
20260504044535 51 188 0.0 0.0 0.00 0.00 0.00 88 1022.2
20260504044032 51 131 1.7 1.7 0.00 0.00 0.00 88 1022.3
20260504043529 52 145 0.9 1.7 0.00 0.00 0.00 88 1022.1
20260504043026 52 99 0.0 0.0 0.00 0.00 0.00 87 1022.0
20260504042523 52 99 0.0 0.0 0.00 0.00 0.00 87 1022.1
20260504042020 53 246 0.0 0.0 0.00 0.00 0.00 87 1022.0
20260504041516 53 246 0.0 0.0 0.00 0.00 0.00 87 1022.1
20260504041012 53 246 0.0 0.0 0.00 0.00 0.00 86 1022.1
20260504040510 53 294 0.0 1.7 0.00 0.00 0.00 87 1022.3
20260504040006 52 165 0.0 0.9 0.00 0.01 0.01 87 1022.1
20260504035503 53 165 0.9 0.9 0.00 0.01 0.01 86 1022.1
20260504034959 53 106 0.0 0.9 0.00 0.01 0.01 85 1022.1
20260504034457 53 75 0.9 0.9 0.00 0.01 0.01 85 1022.1
20260504033954 53 96 0.9 0.9 0.00 0.01 0.01 84 1021.9
20260504033452 53 99 0.0 0.0 0.00 0.01 0.01 84 1022.1
20260504032949 53 126 0.0 0.0 0.00 0.01 0.01 83 1022.0
20260504032446 54 126 0.0 0.0 0.00 0.01 0.01 82 1022.2
20260504031942 54 126 0.0 0.0 0.00 0.01 0.01 82 1021.9
20260504031439 54 126 0.0 0.0 0.00 0.01 0.01 80 1021.9
20260504030936 55 126 0.0 0.0 0.00 0.01 0.01 80 1021.9
20260504030433 55 157 0.0 1.7 0.00 0.01 0.01 80 1022.0
20260504025929 55 157 0.9 1.7 0.00 0.01 0.01 80 1021.9
20260504025426 55 180 0.0 1.7 0.00 0.01 0.01 79 1022.0
20260504024923 55 160 0.0 0.9 0.00 0.01 0.01 79 1022.1
20260504024420 55 168 0.9 1.7 0.00 0.01 0.01 78 1021.8
20260504023917 55 165 0.0 0.0 0.00 0.01 0.01 78 1021.9
20260504023413 56 180 0.0 0.0 0.00 0.01 0.01 76 1021.9
20260504022909 56 180 0.0 0.0 0.00 0.01 0.01 75 1021.9
20260504022406 56 186 0.9 0.9 0.00 0.01 0.01 75 1021.9
20260504021902 56 188 0.0 0.0 0.00 0.01 0.01 75 1021.8
20260504021400 56 165 0.0 0.0 0.00 0.01 0.01 78 1021.9
20260504020857 56 165 0.0 0.0 0.00 0.01 0.01 78 1021.6
20260504020353 56 165 0.0 0.0 0.00 0.01 0.01 78 1021.4
20260504015849 57 165 0.0 0.0 0.00 0.01 0.01 77 1021.7
20260504015346 57 165 0.0 0.0 0.00 0.01 0.01 76 1021.7
20260504014842 58 165 0.0 0.9 0.00 0.01 0.01 75 1021.4
20260504014338 57 180 0.0 0.0 0.00 0.01 0.01 74 1021.3
20260504013836 57 180 0.0 0.0 0.00 0.01 0.01 73 1021.3
20260504013333 57 180 0.0 0.0 0.00 0.01 0.01 73 1021.3
20260504012830 58 180 0.0 0.0 0.00 0.01 0.01 74 1021.2
20260504012328 58 180 0.0 0.0 0.00 0.01 0.01 71 1021.1
20260504011825 59 180 0.0 0.0 0.00 0.01 0.01 72 1021.0
20260504011321 60 180 0.0 0.0 0.00 0.01 0.01 70 1021.0
20260504010817 60 180 0.0 0.0 0.00 0.01 0.01 69 1021.0
20260504010313 60 151 0.0 0.0 0.00 0.01 0.01 67 1020.9
20260504005810 61 151 0.0 0.0 0.00 0.01 0.01 65 1020.6
20260504005307 61 151 0.0 0.0 0.00 0.01 0.01 64 1020.9
20260504004804 61 151 0.0 0.0 0.00 0.01 0.01 58 1020.5
20260504004302 61 151 0.0 0.0 0.00 0.01 0.01 64 1020.6
20260504003758 62 151 0.0 0.0 0.00 0.01 0.01 62 1020.9
20260504003255 63 151 0.0 1.7 0.00 0.01 0.01 61 1020.4
20260504002751 63 0 0.0 0.0 0.00 0.01 0.01 55 1020.3
20260504002249 65 0 0.0 1.7 0.00 0.01 0.01 52 1020.4
20260504001746 65 0 1.7 1.7 0.00 0.01 0.01 52 1020.5
20260504001243 66 349 1.7 1.7 0.00 0.01 0.01 50 1020.5
20260504000740 66 0 0.0 0.0 0.00 0.01 0.01 48 1020.2
20260504000237 67 345 0.0 0.0 0.00 0.01 0.01 46 1020.5
20260503235735 68 345 0.0 0.0 0.00 0.01 0.01 44 1020.2
20260503235232 68 286 0.0 0.9 0.00 0.01 0.01 42 1020.2
20260503234730 69 270 0.9 1.7 0.00 0.01 0.01 42 1020.3
20260503234228 69 286 0.0 2.6 0.00 0.01 0.01 40 1020.3
20260503233725 70 263 0.0 0.9 0.00 0.01 0.01 39 1020.2
20260503233219 71 250 1.7 2.6 0.00 0.01 0.01 38 1020.5
20260503232717 73 266 2.6 2.6 0.00 0.01 0.01 37 1020.0
20260503232214 74 173 0.0 2.6 0.00 0.01 0.01 37 1020.3
20260503231713 75 236 0.0 1.7 0.00 0.01 0.01 39 1020.3
20260503231209 73 247 2.6 3.5 0.00 0.01 0.01 36 1020.4
20260503230705 74 306 0.0 2.6 0.00 0.01 0.01 37 1020.3
20260503230203 74 313 2.6 3.5 0.00 0.01 0.01 39 1020.2
20260503225700 73 303 1.7 4.3 0.00 0.01 0.01 38 1020.4
20260503225159 73 261 1.7 4.3 0.00 0.01 0.01 39 1020.3
20260503224657 73 294 0.0 6.1 0.00 0.01 0.01 39 1020.6
20260503224155 74 292 1.7 3.5 0.00 0.01 0.01 38 1020.4
20260503223653 73 270 3.5 6.1 0.00 0.01 0.01 37 1020.5
20260503223149 75 203 0.9 1.7 0.00 0.01 0.01 38 1020.4
20260503222646 73 315 3.5 6.1 0.00 0.01 0.01 37 1020.6
20260503222144 74 257 0.9 3.5 0.00 0.01 0.01 38 1020.5
20260503221642 75 315 1.7 3.5 0.00 0.01 0.01 39 1020.5
20260503221139 76 293 3.5 3.5 0.00 0.01 0.01 38 1020.4
20260503220636 75 270 4.3 4.3 0.00 0.01 0.01 38 1020.5
20260503220132 75 237 1.7 4.3 0.00 0.01 0.01 36 1020.4
20260503215630 74 45 0.0 2.6 0.00 0.01 0.01 38 1020.6